Location: Soapstone Prairie Natural Area
(40.9437°N, 105.0829°W)
Time: 19:55:24
(UTC-06:00)

ISS - Visible Passes

Search period start: 31 October 2014 00:00
Search period end: 09 November 2014 23:00
Orbit: 412 x 417 km, 51.6° (Epoch: 31 October)

Date Brightness Start Highest point End Pass type
(mag) Time Alt. Az. Time Alt. Az. Time Alt. Az.
06 Nov 0.1 05:55:37 10° SSE 05:57:03 12° SE 05:58:29 10° ESE visible
08 Nov -1.4 05:51:35 10° SSW 05:54:35 33° SE 05:57:36 10° ENE visible
09 Nov -0.5 05:02:53 10° S 05:05:16 19° SE 05:07:39 10° E visible
